ENVA

Trondheim/Vaernes

Airport
ICAO code
ENVA
Summary
ICAO Region
EUR
ICAO Territory
Location

Trondheim, Norway,

Elevation
56 ft
Coordinates
63° 27' 28" N , 10° 55' 26" E
KCC
Metar
ENVA 202320Z AUTO VRB02KT 9999 OVC025/// 02/02 Q1001 RMK WIND 670FT 20011KT

International airport serving Trondheim, Norway. Note that the only runway 09/27 is used.

Climatology

Temperate Marine climate/Oceanic climate (Köppen climate classification Cfb). Moderately cool summer and comparatively warm winter with a temperature range of only 14°C. Prevailing south-westerly winds from the Atlantic Ocean.

Runways

Designator Length Width Surface Rops
14/32 950 36 ASP No/No
13/31 1454 36 ASP No/No
9/27 2759 45 ASP Yes/Yes

Airport map

Aerial View

SKYbrary Partners:

Safety knowledge contributed by: